Weather History for Managua, Nicaragua

Change the Weather History Date:

Saturday, January 4, 2014

  Actual Average Record
Temperature  
Mean Temperature 80 °F -  
Max Temperature 87 °F 88 °F 91 °F (1998)
Min Temperature 73 °F 68 °F 68 °F (1997)
Cooling Degree Days 15    
Growing Degree Days 30 (Base 50)    
Moisture  
Dew Point 71 °F    
Average Humidity 75    
Maximum Humidity 94    
Minimum Humidity 55    
Precipitation  
Precipitation 0.00 in - - ()
Sea Level Pressure  
Sea Level Pressure 29.81 in    
Wind  
Wind Speed 4 mph ()    
Max Wind Speed 18 mph    
Max Gust Speed -    
Visibility 6.2 miles    
Events      
Averages and records for this station are not official NWS values.
T = Trace of Precipitation, MM = Missing Value Source: Averaged Metar Reports

Daily Weather History Graph

Daily Weather History Graph

Search for Another Location

Airport:

Trip Planner

Search our weather history database for the weather conditions in past years. The results will help you decide how hot, cold, wet, or windy it might be!

Date:

Astronomy

Jan. 04, 2014 Rise Set
Actual Time 6:06 AM CST 5:32 PM CST
Civil Twilight 5:43 AM CST 5:55 PM CST
Nautical Twilight 5:17 AM CST 6:22 PM CST
Astronomical Twilight 4:51 AM CST 6:48 PM CST
Moon 8:52 AM CST (1/4) 9:05 PM CST (1/4)
Length of Visible Light 12h 12m
Length of Day
11h 26m
Waxing Crescent, 15% of the Moon is Illuminated
Jan 4
Waxing Crescent
Jan 7
First Quarter
Jan 15
Full
Jan 23
Last Quarter
Jan 30
New

Hourly Weather History & Observations

Time (CST) Temp. Heat Index Dew Point Humidity Pressure Visibility Wind Dir Wind Speed Gust Speed Precip Events Conditions
12:00 AM 73.4 °F - 69.8 °F 88% 29.83 in 6.2 mi Calm Calm - N/A   Partly Cloudy
1:00 AM 73.4 °F - 71.6 °F 94% 29.83 in 6.2 mi Calm Calm - N/A   Partly Cloudy
2:00 AM 73.4 °F - 69.8 °F 88% 29.83 in 6.2 mi Calm Calm - N/A   Partly Cloudy
3:00 AM 73.4 °F - 69.8 °F 88% 29.80 in 6.2 mi Calm Calm - N/A   Scattered Clouds
4:00 AM 75.2 °F - 69.8 °F 83% 29.80 in 6.2 mi Calm Calm - N/A   Scattered Clouds
4:15 AM - - - N/A% - 5.6 mi Calm Calm - N/A   Light Drizzle
5:00 AM 75.2 °F - 69.8 °F 83% 29.80 in 6.2 mi Calm Calm - N/A   Scattered Clouds
6:00 AM 75.2 °F - 71.6 °F 89% 29.83 in 6.2 mi ENE 6.9 mph - N/A   Scattered Clouds
7:00 AM 75.2 °F - 69.8 °F 83% 29.83 in 6.2 mi ESE 4.6 mph - N/A   Scattered Clouds
8:00 AM 77.0 °F - 71.6 °F 83% 29.86 in 6.2 mi ESE 6.9 mph - N/A   Mostly Cloudy
9:00 AM 78.8 °F - 69.8 °F 74% 29.86 in 6.2 mi East 9.2 mph - N/A   Mostly Cloudy
10:00 AM 84.2 °F 89.6 °F 71.6 °F 66% 29.86 in 6.2 mi ENE 9.2 mph - N/A   Scattered Clouds
11:00 AM 84.2 °F 88.4 °F 69.8 °F 62% 29.83 in 6.2 mi ENE 11.5 mph - N/A   Mostly Cloudy
11:58 AM - - - N/A% - 5.6 mi ESE 9.2 mph - N/A   Light Drizzle
12:00 PM 86.0 °F 90.4 °F 69.8 °F 58% 29.80 in 6.2 mi East 11.5 mph - N/A   Mostly Cloudy
1:00 PM 86.0 °F 91.8 °F 71.6 °F 62% 29.77 in 6.2 mi ESE 16.1 mph - N/A   Scattered Clouds
2:00 PM 87.8 °F 92.6 °F 69.8 °F 55% 29.74 in 6.2 mi East 13.8 mph - N/A   Scattered Clouds
3:00 PM 86.0 °F 90.4 °F 69.8 °F 58% 29.74 in 6.2 mi ESE 18.4 mph - N/A   Scattered Clouds
4:00 PM 82.4 °F 87.2 °F 71.6 °F 70% 29.74 in 6.2 mi ESE 11.5 mph - N/A   Mostly Cloudy
5:00 PM 86.0 °F 91.8 °F 71.6 °F 62% 29.74 in 6.2 mi ESE 9.2 mph - N/A   Scattered Clouds
6:00 PM 84.2 °F 88.4 °F 69.8 °F 62% 29.77 in 6.2 mi ENE 6.9 mph - N/A   Scattered Clouds
7:00 PM 82.4 °F 86.3 °F 69.8 °F 66% 29.77 in 6.2 mi NE 4.6 mph - N/A   Scattered Clouds
8:00 PM 80.6 °F 83.9 °F 69.8 °F 70% 29.83 in 6.2 mi ENE 4.6 mph - N/A   Partly Cloudy
9:00 PM 78.8 °F - 71.6 °F 78% 29.83 in 6.2 mi East 4.6 mph - N/A   Partly Cloudy
10:00 PM 77.0 °F - 71.6 °F 83% 29.86 in 6.2 mi East 4.6 mph - N/A   Partly Cloudy
11:00 PM 77.0 °F - 71.6 °F 83% 29.83 in 6.2 mi East 4.6 mph - N/A   Partly Cloudy